Weather in Letnyaya Stavka

Russia / Stavropol Krai     45°25′34″N   43°26′36″E
temp.,
°C
wind,
m/s
gust,
m/s
humid.,
%
clouds,
%
prec.,
mm/h
press.,
hPa
HPBL,
m
10 april, sat
sat1000:00+5wnw6888100 0.0 1019588
03:00+4wnw6992100 0.0 1018580
06:00+4wnw6892100 0.0 1019525
09:00+5wnw6889100 0.1 1018581
12:00+8wnw6679100 0.0 1019755
15:00+9wnw5577100 0.1 1019941
18:00+8wnw5682100 0.0 1020542
21:00+7wnw3586100 0.0 1020255
11 april, sun
sun1100:00+7w3488100 0.0 1020197
03:00+7w2388100 0.0 1019171
06:00+7w2389100 0.0 1019142
09:00+10w117594 0.0 1019468
12:00+15ne335950 0.0 10181098
15:00+17e575380 0.0 10171519
18:00+16ene2260100 0.0 101613
21:00+13nnw1268100 0.0 101515
12 april, mon
mon1200:00+12e2272100 0.1 101535
03:00+11ne116584 0.1 101513
06:00+10w2376100 0.0 101640
09:00+13wnw5475100 0.1 1018668
12:00+15wnw4464100 0.1 10181155
15:00+13wnw6782100 0.3 1019520
18:00+11w4785100 0.1 1020314
21:00+9wnw369379 0.1 1021158
13 april, tue
tue1300:00+10wnw249295 0.0 1021192
03:00+10wnw239493 0.1 1020139
06:00+10nw229599 0.0 1020114
09:00+12wnw218194 0.0 1020526
12:00+16wsw1163100 0.0 10201168
15:00+13w5478100 0.0 1021463
18:00+11wnw5786100 0.0 1021331
21:00+10nw4791100 0.3 1022276
14 april, wed
wed1400:00+9nw3697100 1.0 1020190
03:00+9nw3599100 1.0 1020148
06:00+8nw359885 0.0 1019153
09:00+12nnw4367100 0.0 1018304
12:00+16ese2340100 0.0 1017970
15:00+18e3434100 0.0 10161755
18:00+14wsw5766100 0.0 1016312
21:00+10w388647 0.0 1018193